E1057 Weather Reports


Display with metric or nautical units.
time (UTC)temp
F
wind
direction
speed
MPH
gust
MPH
rain 1hr
in
rain 24hr
in
rain mn
in
humidity
%
barometer
mb
20260503220552 61 27 0.0 3.0 0.00 0.00 0.00 48 1012.3
20260503220022 62 28 0.0 3.0 0.00 0.00 0.00 47 1012.5
20260503215550 62 336 0.0 3.0 0.00 0.00 0.00 47 1012.5
20260503215025 62 323 0.0 3.0 0.00 0.00 0.00 46 1012.5
20260503214552 62 323 0.0 4.0 0.00 0.00 0.00 46 1012.5
20260503214014 62 84 0.0 4.0 0.00 0.00 0.00 44 1012.6
20260503213546 62 39 0.0 3.0 0.00 0.00 0.00 45 1012.6
20260503213019 63 290 0.0 8.0 0.00 0.00 0.00 42 1012.8
20260503212538 63 276 0.0 8.0 0.00 0.00 0.00 44 1012.8
20260503212003 63 91 0.0 5.0 0.00 0.00 0.00 41 1012.8
20260503211537 63 98 0.0 1.0 0.00 0.00 0.00 42 1012.8
20260503211013 62 98 0.0 5.0 0.00 0.00 0.00 43 1012.8
20260503210535 62 99 0.0 5.0 0.00 0.00 0.00 41 1012.8
20260503210002 62 105 0.0 3.0 0.00 0.00 0.00 43 1012.8
20260503205535 62 105 0.0 4.0 0.00 0.00 0.00 46 1012.8
20260503205058 62 105 0.0 6.0 0.00 0.00 0.00 45 1012.8
20260503204506 61 120 0.0 6.0 0.00 0.00 0.00 45 1013.2
20260503204038 61 304 0.0 6.0 0.00 0.00 0.00 44 1013.2
20260503203504 61 304 1.0 11.0 0.00 0.00 0.00 45 1013.2
20260503203036 62 64 1.0 11.0 0.00 0.00 0.00 44 1013.4
20260503202558 62 271 0.0 6.0 0.00 0.00 0.00 43 1013.4
20260503202022 62 44 0.0 10.0 0.00 0.00 0.00 43 1013.4
20260503201552 63 284 1.0 10.0 0.00 0.00 0.00 42 1013.4
20260503201015 63 109 2.0 9.0 0.00 0.00 0.00 42 1013.5
20260503200543 63 52 0.0 11.0 0.00 0.00 0.00 41 1013.5
20260503200017 63 14 2.0 11.0 0.00 0.00 0.00 41 1014.0
20260503195541 63 39 0.0 2.0 0.00 0.00 0.00 41 1014.0
20260503195008 63 286 0.0 6.0 0.00 0.00 0.00 40 1014.0
20260503194540 64 155 0.0 5.0 0.00 0.00 0.00 40 1014.1
20260503194009 64 95 0.0 6.0 0.00 0.00 0.00 40 1014.1
20260503193536 64 94 0.0 6.0 0.00 0.00 0.00 41 1014.1
20260503193117 64 107 0.0 12.0 0.00 0.00 0.00 42 1014.1
20260503192527 64 76 4.0 12.0 0.00 0.00 0.00 40 1014.4
20260503192049 64 12 0.0 3.0 0.00 0.00 0.00 42 1014.4
20260503191538 63 314 0.0 3.0 0.00 0.00 0.00 41 1014.5
20260503191047 63 316 1.0 3.0 0.00 0.00 0.00 42 1014.5
20260503190511 63 316 0.0 6.0 0.00 0.00 0.00 45 1014.5
20260503190036 63 331 0.0 6.0 0.00 0.00 0.00 41 1014.5
20260503185556 63 331 0.0 5.0 0.00 0.00 0.00 43 1014.5
20260503185021 64 335 0.0 3.0 0.00 0.00 0.00 45 1014.5
20260503184549 64 333 0.0 4.0 0.00 0.00 0.00 44 1014.5
20260503184025 63 331 1.0 4.0 0.00 0.00 0.00 42 1014.6
20260503183549 63 305 0.0 3.0 0.00 0.00 0.00 44 1014.6
20260503183021 62 121 0.0 4.0 0.00 0.00 0.00 46 1014.9
20260503182549 61 159 0.0 4.0 0.00 0.00 0.00 44 1014.9
20260503182024 61 323 0.0 1.0 0.00 0.00 0.00 45 1014.9
20260503181550 61 321 0.0 2.0 0.00 0.00 0.00 43 1015.1
20260503181006 61 322 0.0 2.0 0.00 0.00 0.00 45 1015.1
20260503180534 61 322 0.0 0.0 0.00 0.00 0.00 41 1015.1
20260503175529 60 322 0.0 0.0 0.00 0.00 0.00 40 1015.2
20260503175057 60 322 0.0 0.0 0.00 0.00 0.00 44 1015.2
20260503174532 61 322 0.0 0.0 0.00 0.00 0.00 39 1015.2
20260503174053 61 322 0.0 5.0 0.00 0.00 0.00 40 1015.2
20260503173525 62 322 0.0 5.0 0.00 0.00 0.00 36 1015.2
20260503173058 62 34 0.0 4.0 0.00 0.00 0.00 42 1015.2
20260503172525 62 34 0.0 2.0 0.00 0.00 0.00 39 1015.7
20260503172058 62 34 0.0 2.0 0.00 0.00 0.00 41 1015.7
20260503171528 61 34 0.0 2.0 0.00 0.00 0.00 44 1015.8
20260503171057 61 34 0.0 2.0 0.00 0.00 0.00 42 1015.8
20260503170530 61 34 0.0 2.0 0.00 0.00 0.00 41 1015.8
20260503170104 60 34 0.0 0.0 0.00 0.00 0.00 42 1015.8
20260503151012 55 45 0.0 0.0 0.00 0.00 0.00 54 1017.1
20260503150531 55 45 0.0 2.0 0.00 0.00 0.00 56 1017.1
20260503131053 47 74 0.0 0.0 0.00 0.00 0.00 72 1016.9
20260503130528 46 74 0.0 4.0 0.00 0.00 0.00 73 1016.9
20260503110512 35 75 0.0 0.0 0.00 0.00 0.00 73 1016.0
20260503081552 37 75 0.0 0.0 0.00 0.00 0.00 84 1013.9
20260503081026 38 75 0.0 0.0 0.00 0.00 0.00 83 1013.8
20260503080558 38 75 0.0 0.0 0.00 0.00 0.00 83 1013.8
20260503072542 37 75 0.0 0.0 0.00 0.00 0.00 84 1013.3
20260503072014 37 75 0.0 0.0 0.00 0.00 0.00 84 1013.3
20260503071539 38 75 0.0 0.0 0.00 0.00 0.00 84 1013.1
20260503071006 38 75 0.0 0.0 0.00 0.00 0.00 84 1013.1
20260503070535 38 75 0.0 0.0 0.00 0.00 0.00 84 1013.1
20260503055030 38 75 0.0 0.0 0.00 0.00 0.00 84 1013.1
20260503054611 38 75 0.0 0.0 0.00 0.00 0.00 84 1013.1
20260503054027 38 75 0.0 0.0 0.00 0.00 0.00 84 1013.1
20260503053556 38 75 0.0 0.0 0.00 0.00 0.00 84 1013.1
20260503053030 38 75 0.0 0.0 0.00 0.00 0.00 84 1013.0
20260503052555 39 75 0.0 0.0 0.00 0.00 0.00 83 1013.0
20260503052019 39 75 0.0 0.0 0.00 0.00 0.00 84 1013.0
20260503051550 39 75 0.0 0.0 0.00 0.00 0.00 83 1013.0
20260503051011 39 75 0.0 0.0 0.00 0.00 0.00 83 1012.9
20260503050541 39 75 0.0 0.0 0.00 0.00 0.00 82 1012.9
20260503050010 39 75 0.0 0.0 0.00 0.00 0.00 82 1012.9
20260503045545 39 75 0.0 0.0 0.00 0.00 0.00 82 1012.9
20260503045003 39 75 0.0 0.0 0.00 0.00 0.00 82 1012.9
20260503044541 40 75 0.0 0.0 0.00 0.00 0.00 82 1012.6
20260503044059 40 75 0.0 0.0 0.00 0.00 0.00 82 1012.6
20260503043523 40 75 0.0 0.0 0.00 0.00 0.00 81 1012.6
20260503043052 40 75 0.0 0.0 0.00 0.00 0.00 80 1012.5
20260503042507 40 75 0.0 0.0 0.00 0.00 0.00 80 1012.5
20260503042042 40 75 0.0 0.0 0.00 0.00 0.00 80 1012.5
20260503041511 40 75 0.0 0.0 0.00 0.00 0.00 80 1012.4
20260503041045 40 75 0.0 0.0 0.00 0.00 0.00 80 1012.4
20260503040514 40 75 0.0 0.0 0.00 0.00 0.00 80 1012.4
20260503040040 41 75 0.0 0.0 0.00 0.00 0.00 79 1012.3
20260503035504 41 75 0.0 0.0 0.00 0.00 0.00 78 1012.3
20260503035038 41 75 0.0 0.0 0.00 0.00 0.00 78 1012.3
20260503034556 41 75 0.0 0.0 0.00 0.00 0.00 78 1012.3
20260503034023 42 75 0.0 0.0 0.00 0.00 0.00 77 1012.1
20260503033551 42 75 0.0 0.0 0.00 0.00 0.00 76 1012.1
20260503033022 42 75 0.0 0.0 0.00 0.00 0.00 76 1012.1
20260503032546 42 75 0.0 0.0 0.00 0.00 0.00 74 1012.1
20260503032012 42 75 0.0 0.0 0.00 0.00 0.00 74 1012.1
20260503031538 42 75 0.0 0.0 0.00 0.00 0.00 74 1012.0
20260503031008 42 75 0.0 0.0 0.00 0.00 0.00 75 1012.0
20260503030536 42 75 0.0 0.0 0.00 0.00 0.00 74 1012.0
20260503030104 43 75 0.0 0.0 0.00 0.00 0.00 73 1012.0
20260503025527 43 75 0.0 0.0 0.00 0.00 0.00 72 1011.8
20260503025056 44 75 0.0 0.0 0.00 0.00 0.00 72 1011.8
20260503024526 44 75 0.0 0.0 0.00 0.00 0.00 71 1011.6
20260503024056 44 75 0.0 0.0 0.00 0.00 0.00 69 1011.6
20260503023519 44 75 0.0 0.0 0.00 0.00 0.00 68 1011.6
20260503023053 44 75 0.0 0.0 0.00 0.00 0.00 68 1011.6
20260503022517 44 75 0.0 0.0 0.00 0.00 0.00 68 1011.6
20260503022041 44 75 0.0 0.0 0.00 0.00 0.00 68 1011.6
20260503021508 45 75 0.0 0.0 0.00 0.00 0.00 68 1011.4
20260503021030 45 75 0.0 0.0 0.00 0.00 0.00 68 1011.4
20260503020600 45 75 0.0 0.0 0.00 0.00 0.00 68 1011.4
20260503020033 45 75 0.0 0.0 0.00 0.00 0.00 67 1011.1
20260503015558 45 75 0.0 0.0 0.00 0.00 0.00 67 1011.1
20260503015027 46 75 0.0 0.0 0.00 0.00 0.00 64 1011.1
20260503014602 46 75 0.0 0.0 0.00 0.00 0.00 64 1011.1
20260503014031 46 75 0.0 0.0 0.00 0.00 0.00 64 1011.0
20260503013600 46 75 0.0 0.0 0.00 0.00 0.00 64 1011.0
20260503013502 46 75 0.0 0.0 0.00 0.00 0.00 64 1011.0
20260503013036 47 75 0.0 0.0 0.00 0.00 0.00 62 1010.6
20260503012559 47 75 0.0 0.0 0.00 0.00 0.00 61 1010.6
20260503012017 48 75 0.0 0.0 0.00 0.00 0.00 60 1010.6
20260503011545 48 75 0.0 0.0 0.00 0.00 0.00 60 1010.5
20260503011017 48 75 0.0 0.0 0.00 0.00 0.00 58 1010.5
20260503010540 49 75 0.0 0.0 0.00 0.00 0.00 59 1010.5
20260503010008 49 75 0.0 0.0 0.00 0.00 0.00 56 1010.3
20260503005538 49 75 0.0 0.0 0.00 0.00 0.00 54 1010.3
20260503005004 50 75 0.0 0.0 0.00 0.00 0.00 53 1010.3
20260503004537 50 75 0.0 0.0 0.00 0.00 0.00 53 1009.9
20260503004057 50 75 0.0 0.0 0.00 0.00 0.00 52 1009.9
20260503003526 51 75 0.0 0.0 0.00 0.00 0.00 52 1009.9
20260503003058 51 75 0.0 1.0 0.00 0.00 0.00 53 1009.9
20260503002528 51 75 0.0 1.0 0.00 0.00 0.00 52 1009.7
20260503002052 52 75 0.0 0.0 0.00 0.00 0.00 52 1009.7
20260503001534 52 75 0.0 0.0 0.00 0.00 0.00 50 1009.3
20260503001053 52 75 0.0 0.0 0.00 0.00 0.00 50 1009.3
20260503000523 52 75 0.0 0.0 0.00 0.00 0.00 51 1009.3
20260503000051 53 75 0.0 0.0 0.00 0.00 0.00 49 1009.3
20260502235523 53 75 0.0 1.0 0.00 0.00 0.00 49 1009.1
20260502235047 53 75 0.0 1.0 0.00 0.00 0.00 48 1009.1
20260502234511 53 75 0.0 0.0 0.00 0.00 0.00 51 1008.9
20260502234043 53 75 0.0 0.0 0.00 0.00 0.00 49 1008.9
20260502233507 53 75 0.0 0.0 0.00 0.00 0.00 49 1008.9
20260502233043 53 75 0.0 0.0 0.00 0.00 0.00 48 1008.8
20260502232508 53 75 0.0 0.0 0.00 0.00 0.00 47 1008.8
20260502232038 53 75 0.0 0.0 0.00 0.00 0.00 47 1008.8
20260502231503 54 75 0.0 2.0 0.00 0.00 0.00 50 1008.7
20260502231034 54 75 0.0 2.0 0.00 0.00 0.00 46 1008.7
20260502230502 54 75 0.0 1.0 0.00 0.00 0.00 48 1008.7
20260502230036 54 87 0.0 0.0 0.00 0.00 0.00 47 1008.7
20260502225501 54 87 0.0 5.0 0.00 0.00 0.00 47 1008.7
20260502225033 54 87 0.0 5.0 0.00 0.00 0.00 46 1008.7
20260502224501 54 59 0.0 0.0 0.00 0.00 0.00 49 1008.6
20260502224036 54 59 0.0 0.0 0.00 0.00 0.00 46 1008.6
20260502223559 55 59 0.0 5.0 0.00 0.00 0.00 47 1008.6
20260502223036 55 59 0.0 5.0 0.00 0.00 0.00 46 1008.2
20260502222550 55 104 0.0 6.0 0.00 0.00 0.00 45 1008.2
20260502222024 56 85 0.0 1.0 0.00 0.00 0.00 44 1008.2
20260502221547 56 85 0.0 3.0 0.00 0.00 0.00 43 1008.0
20260502221017 56 85 0.0 3.0 0.00 0.00 0.00 43 1008.0